Hourly Weather Franceville

Today, 12 August, Wednesday

Time Temperature Precipitation Wind Pressure Humidity
00:00 +28°C° 0.1 mm 1 mps 732 mmHg 72%
01:00 +27°C° 0 mm 1 mps 731 mmHg 72%
02:00 +26°C° 0 mm 1 mps 731 mmHg 74%
03:00 +26°C° 0 mm 1 mps 731 mmHg 76%
04:00 +25°C° 0 mm 1 mps 731 mmHg 78%
05:00 +25°C° 0 mm 1 mps 732 mmHg 78%
06:00 +25°C° 0 mm 1 mps 732 mmHg 78%
07:00 +25°C° 0 mm 1 mps 733 mmHg 77%
08:00 +28°C° 0 mm 1 mps 733 mmHg 67%
09:00 +31°C° 0 mm 1 mps 733 mmHg 56%
10:00 +34°C° 0 mm 1 mps 733 mmHg 45%
11:00 +35°C° 0 mm 1 mps 733 mmHg 41%
12:00 +36°C° 0 mm 1 mps 732 mmHg 38%
13:00 +39°C° 0 mm 1 mps 731 mmHg 34%
14:00 +37°C° 0 mm 1 mps 731 mmHg 35%
15:00 +36°C° 0 mm 1 mps 730 mmHg 37%
16:00 +35°C° 0 mm 1 mps 730 mmHg 38%
17:00 +34°C° 0 mm 1 mps 730 mmHg 42%
18:00 +33°C° 0 mm 1 mps 730 mmHg 45%
19:00 +32°C° 0 mm 1 mps 730 mmHg 49%
20:00 +31°C° 0 mm 1 mps 731 mmHg 54%
21:00 +30°C° 0 mm 1 mps 731 mmHg 59%
22:00 +29°C° 0 mm 1 mps 732 mmHg 63%
23:00 +28°C° 0 mm 1 mps 732 mmHg 65%

Tomorrow, 13 August, Thursday

Time Temperature Precipitation Wind Pressure Humidity
00:00 +28°C° 0 mm 1 mps 732 mmHg 68%
01:00 +27°C° 0 mm 1 mps 732 mmHg 70%
02:00 +27°C° 0 mm 1 mps 731 mmHg 73%
03:00 +26°C° 0 mm 1 mps 731 mmHg 76%
04:00 +25°C° 0 mm 1 mps 731 mmHg 78%
05:00 +25°C° 0 mm 1 mps 732 mmHg 78%
06:00 +25°C° 0 mm 1 mps 732 mmHg 78%
07:00 +25°C° 0 mm 1 mps 732 mmHg 78%
08:00 +28°C° 0 mm 1 mps 732 mmHg 68%
09:00 +30°C° 0 mm 1 mps 733 mmHg 58%
10:00 +33°C° 0 mm 1 mps 733 mmHg 48%
11:00 +35°C° 0 mm 1 mps 732 mmHg 43%
12:00 +37°C° 0 mm 1 mps 731 mmHg 37%
13:00 +39°C° 0 mm 1 mps 730 mmHg 32%
14:00 +39°C° 0 mm 1 mps 730 mmHg 32%
15:00 +37°C° 0 mm 1 mps 729 mmHg 33%
16:00 +38°C° 0 mm 2 mps 728 mmHg 33%
17:00 +35°C° 0 mm 1 mps 728 mmHg 37%
18:00 +34°C° 0 mm 1 mps 729 mmHg 42%
19:00 +32°C° 0 mm 1 mps 729 mmHg 46%
20:00 +32°C° 0 mm 1 mps 730 mmHg 49%
21:00 +31°C° 0 mm 1 mps 730 mmHg 52%
22:00 +30°C° 0 mm 2 mps 731 mmHg 55%
23:00 +30°C° 0 mm 2 mps 731 mmHg 58%

Day after tomorrow, 14 August, Friday

Time Temperature Precipitation Wind Pressure Humidity
00:00 +29°C° 0 mm 2 mps 731 mmHg 61%
01:00 +28°C° 0 mm 1 mps 731 mmHg 63%
02:00 +27°C° 0.1 mm 1 mps 730 mmHg 66%
03:00 +27°C° 0.1 mm 1 mps 730 mmHg 69%
04:00 +26°C° 0.1 mm 1 mps 730 mmHg 72%
05:00 +26°C° 0 mm 1 mps 731 mmHg 73%
06:00 +26°C° 0 mm 1 mps 731 mmHg 73%
07:00 +26°C° 0 mm 1 mps 731 mmHg 74%
08:00 +28°C° 0 mm 1 mps 731 mmHg 65%
09:00 +30°C° 0 mm 2 mps 732 mmHg 57%
10:00 +32°C° 0 mm 2 mps 732 mmHg 49%
11:00 +35°C° 0 mm 2 mps 731 mmHg 44%
12:00 +37°C° 0 mm 2 mps 730 mmHg 39%
13:00 +38°C° 0 mm 2 mps 729 mmHg 34%
14:00 +38°C° 0 mm 2 mps 728 mmHg 35%
15:00 +37°C° 0 mm 2 mps 728 mmHg 36%
16:00 +37°C° 0 mm 2 mps 727 mmHg 36%
17:00 +35°C° 0 mm 1 mps 727 mmHg 39%
18:00 +34°C° 0 mm 1 mps 727 mmHg 41%
19:00 +33°C° 0 mm 1 mps 728 mmHg 44%
20:00 +32°C° 0 mm 1 mps 729 mmHg 45%
21:00 +31°C° 0 mm 1 mps 729 mmHg 47%
22:00 +31°C° 0 mm 2 mps 730 mmHg 49%
23:00 +29°C° 0 mm 2 mps 730 mmHg 54%

15 August, Saturday

Time Temperature Precipitation Wind Pressure Humidity
00:00 +28°C° 0 mm 2 mps 730 mmHg 59%
01:00 +27°C° 0 mm 2 mps 730 mmHg 64%
02:00 +26°C° 0 mm 2 mps 730 mmHg 67%
03:00 +26°C° 0 mm 2 mps 730 mmHg 70%
04:00 +25°C° 0 mm 2 mps 730 mmHg 73%
05:00 +25°C° 0 mm 2 mps 730 mmHg 74%
06:00 +25°C° 0 mm 2 mps 730 mmHg 74%
07:00 +25°C° 0 mm 2 mps 731 mmHg 75%
08:00 +27°C° 0 mm 2 mps 731 mmHg 68%
09:00 +29°C° 0 mm 2 mps 731 mmHg 60%
10:00 +31°C° 0 mm 2 mps 732 mmHg 52%
11:00 +32°C° 0 mm 2 mps 731 mmHg 47%
12:00 +35°C° 0 mm 2 mps 730 mmHg 41%
13:00 +37°C° 0 mm 2 mps 729 mmHg 36%
14:00 +37°C° 0 mm 2 mps 729 mmHg 35%
15:00 +38°C° 0 mm 2 mps 728 mmHg 33%
16:00 +37°C° 0 mm 1 mps 727 mmHg 32%
17:00 +35°C° 0 mm 1 mps 727 mmHg 36%
18:00 +33°C° 0 mm 1 mps 728 mmHg 40%
19:00 +32°C° 0 mm 1 mps 728 mmHg 44%
20:00 +31°C° 0 mm 1 mps 728 mmHg 47%
21:00 +30°C° 0 mm 1 mps 729 mmHg 49%
22:00 +29°C° 0 mm 1 mps 729 mmHg 51%
23:00 +28°C° 0 mm 1 mps 730 mmHg 54%

16 August, Sunday

Time Temperature Precipitation Wind Pressure Humidity
00:00 +28°C° 0 mm 1 mps 730 mmHg 56%
01:00 +27°C° 0 mm 1 mps 730 mmHg 58%
02:00 +26°C° 0 mm 1 mps 730 mmHg 60%
03:00 +26°C° 0 mm 1 mps 730 mmHg 62%
04:00 +25°C° 0 mm 1 mps 730 mmHg 64%
05:00 +25°C° 0 mm 1 mps 730 mmHg 66%
06:00 +25°C° 0 mm 1 mps 730 mmHg 67%
07:00 +25°C° 0 mm 1 mps 731 mmHg 68%
08:00 +27°C° 0 mm 1 mps 731 mmHg 61%
09:00 +30°C° 0 mm 1 mps 731 mmHg 54%
10:00 +32°C° 0 mm 2 mps 732 mmHg 46%
11:00 +35°C° 0 mm 2 mps 731 mmHg 42%
12:00 +36°C° 0 mm 2 mps 730 mmHg 38%
13:00 +38°C° 0 mm 2 mps 729 mmHg 34%
14:00 +37°C° 0 mm 2 mps 729 mmHg 35%
15:00 +36°C° 0 mm 2 mps 728 mmHg 36%
16:00 +35°C° 0 mm 1 mps 727 mmHg 38%
17:00 +33°C° 0 mm 1 mps 727 mmHg 42%
18:00 +32°C° 0 mm 1 mps 728 mmHg 46%
19:00 +31°C° 0 mm 1 mps 728 mmHg 50%
20:00 +30°C° 0 mm 1 mps 729 mmHg 51%
21:00 +30°C° 0 mm 1 mps 729 mmHg 52%
22:00 +30°C° 0 mm 1 mps 730 mmHg 53%
23:00 +29°C° 0 mm 1 mps 730 mmHg 53%

17 August, Monday

Time Temperature Precipitation Wind Pressure Humidity
00:00 +29°C° 0 mm 1 mps 730 mmHg 53%
01:00 +29°C° 0 mm 1 mps 730 mmHg 53%
02:00 +28°C° 0 mm 1 mps 730 mmHg 56%
03:00 +27°C° 0 mm 2 mps 730 mmHg 58%
04:00 +26°C° 0 mm 2 mps 730 mmHg 61%
05:00 +26°C° 0 mm 2 mps 730 mmHg 64%
06:00 +25°C° 0 mm 2 mps 731 mmHg 68%
07:00 +24°C° 0 mm 1 mps 731 mmHg 71%
08:00 +27°C° 0 mm 1 mps 731 mmHg 64%
09:00 +29°C° 0 mm 1 mps 732 mmHg 56%
10:00 +31°C° 0 mm 2 mps 732 mmHg 49%
11:00 +33°C° 0 mm 1 mps 731 mmHg 44%
12:00 +35°C° 0 mm 1 mps 730 mmHg 39%
13:00 +37°C° 0 mm 1 mps 730 mmHg 35%
14:00 +36°C° 0 mm 1 mps 729 mmHg 35%
15:00 +36°C° 0 mm 1 mps 728 mmHg 35%
16:00 +36°C° 0 mm 1 mps 727 mmHg 35%
17:00 +34°C° 0 mm 1 mps 728 mmHg 39%
18:00 +33°C° 0 mm 1 mps 728 mmHg 43%
19:00 +32°C° 0 mm 1 mps 728 mmHg 46%
20:00 +31°C° 0 mm 1 mps 729 mmHg 48%
21:00 +31°C° 0 mm 2 mps 730 mmHg 49%
22:00 +30°C° 0 mm 2 mps 730 mmHg 51%
23:00 +29°C° 0 mm 2 mps 730 mmHg 54%
Show more